Regional Weather Roundup
Issued by NWS

Home | Current Version | Previous Version | Text Only | Print | Product List | Glossary On
Versions: 1 2 3 4 5 6 7 8 9 10 11 12 13 14 15 16 17 18 19 20 21 22 23 24 25 26 27 28 29 30 31 32 33 34 35 36 37 38 39 40 41 42 43 44 45 46 47 48 49 50
000
ASUS43 KLMK 040210
RWRKY
KENTUCKY REGIONAL WEATHER ROUNDUP
NATIONAL WEATHER SERVICE LOUISVILLE KY
1000 PM EDT FRI JUL 03 2015

NOTE "FAIR" INDICATES FEW OR NO CLOUDS BELOW 12,000 FEET
WITH NO SIGNIFICANT WEATHER AND/OR OBSTRUCTIONS TO VISIBILITY.

KYZ001>023-026-027-061>063-070>075-040300-
WESTERN AND SOUTH CENTRAL KENTUCKY

CITY           SKY/WX    TMP DP  RH WIND       PRES   REMARKS
PADUCAH        CLOUDY    72  69  90 S5        29.86F
HENDERSON      CLOUDY    73  70  88 CALM      29.87R
OWENSBORO      TSTM      70  69  96 S3        29.90R FOG
HOPKINSVILLE   MOCLDY    73  69  87 SW7       29.89S
BOWLING GREEN  LGT RAIN  71  68  90 W5        29.89R
GLASGOW        CLOUDY    69  69 100 CALM      29.91R
$$

KYZ024-025-028>034-038-045-046-053-040300-
NORTH CENTRAL KENTUCKY

CITY           SKY/WX    TMP DP  RH WIND       PRES   REMARKS
LOUISVILLE/SDF CLOUDY    73  68  84 N3        29.87R
LOUISVILLE/LOU CLOUDY    72  69  90 NW5       29.88R FOG
FORT KNOX      LGT RAIN  70  68  94 CALM      29.88R
$$

KYZ035>037-039>044-047>052-055>060-089>105-040300-
NORTHEAST KENTUCKY

CITY           SKY/WX    TMP DP  RH WIND       PRES   REMARKS
LEXINGTON      RAIN      69  68  96 S6        29.88S FOG
COVINGTON      CLOUDY    71  63  75 E7        29.89R
FRANKFORT      LGT RAIN  68  66  93 CALM      29.87R
$$

KYZ054-064>069-076>088-106>120-040300-
SOUTHEAST KENTUCKY

CITY           SKY/WX    TMP DP  RH WIND       PRES   REMARKS
JACKSON        LGT RAIN  67  66  97 CALM      29.91S FOG
LONDON         RAIN      69  65  86 SW8       29.93R FOG
SOMERSET       LGT RAIN  68  68 100 SW5       29.93R
MIDDLESBORO    DRIZZLE   72  68  86 W3        29.94R
MONTICELLO     CLOUDY    70  70 100 S5        29.94S FOG
$$



USA.gov is the U.S. government's official web portal to all federal, state and local government web resources and services.